Погода в Индауре

Индия     22°43′23″N   75°51′42″E
темп.,
°C
ветер,
м/с
пор.,
м/с
влажн.,
%
обл.,
%
осадки,
мм/ч
давл.,
гПа
погр.,
м
2 августа, пн
пн223:30+22зсз71593100 3.1 1003839
02:30+22з71495100 9.8 1001856
05:30+22з91694100 11.4 1001887
08:30+22з81593100 0.5 1003929
11:30+22з71496100 5.2 1003821
14:30+22з71294100 0.6 1002695
17:30+23з61293100 0.8 1002711
20:30+22зюз51493100 0.1 1003607
3 августа, вт
вт323:30+23зюз71592100 0.2 1004757
02:30+23зюз91692100 0.1 1003802
05:30+22зюз91791100 0.1 1003790
08:30+23з81590100 0.0 1005899
11:30+25з91482100 0.3 10051033
14:30+26з91376100 0.1 10031120
17:30+25з7138485 0.3 10031004
20:30+23зюз51391100 1.1 1005523
4 августа, ср
ср423:30+23зюз71392100 3.4 1005618
02:30+23зюз7149298 2.5 1004732
05:30+23зюз71493100 2.6 1004780
08:30+23зюз71391100 0.1 1006798
11:30+25з7118599 1.3 1006953
14:30+26з8118069 1.8 10041099
17:30+25з71281100 3.2 1004826
20:30+23з51189100 1.5 1005464
5 августа, чт
чт523:30+24з51289100 2.4 1005541
02:30+23з71392100 1.6 1004669
05:30+23з71493100 3.2 1004780
08:30+23з61393100 1.0 1005705
11:30+23з61191100 1.1 1006701
14:30+25з6108498 0.1 1003841
17:30+25з61083100 0.2 1003690
20:30+23з51291100 0.0 1005547
6 августа, пт
пт623:30+23зюз51293100 0.0 1005473
02:30+22з61393100 0.0 1003446
05:30+22з51294100 0.1 1004503
08:30+24з71087100 0.0 1005676
11:30+27з787297 0.0 10041157
14:30+27з687393 0.5 1002772
17:30+27з587522 1.9 1002926
20:30+24з388960 1.9 1004218